[[{"header":{"parameterUnit":"m.s-1","parameterCategory":1,"la1":30.2991,"la2":30.254,"lo1":-89.0895,"lo2":-89.0444,"dy":0.0017,"dx":0.0017,"nx":28,"ny":28,"refTime":"2025-03-16T21:00:00:Z","depth":0,"parameterNumber":2,"parameterNumberName":"U-component_of_WINDS"},"data":[0,0,0,0,0,0,0,0,0,0,0,0,0,0,0,0,0,0,0,0,0,0,0,0,0,0,0,0,0,0,0,0,0,0,0,0,0,0,0,0,0,0,0,0,0,0,0,0,0,0,0,0,0,0,0,0,0,0,1.6415,1.6416,0,1.6502,1.6503,1.6504,1.6516,1.6515,1.6514,1.6514,1.6605,1.6608,1.6611,0,0,0,0,0,0,0,0,0,0,0,0,0,1.6264,1.6267,1.6415,1.6416,1.6417,1.6502,1.6503,1.6504,1.6516,1.6515,1.6514,1.6513,1.6604,1.6608,1.6612,0,0,0,0,0,0,0,0,0,0,0,0,0,1.6338,1.6268,1.6415,1.6433,1.6436,1.6502,1.6503,1.6505,1.6516,1.6515,1.6514,1.6513,1.6603,1.6607,1.6612,1.6666,0,0,1.6627,1.6629,0,0,0,0,0,0,0,0,1.6334,1.6344,1.643,1.6432,1.6435,1.6497,1.6483,1.6559,1.6517,1.6486,1.6514,1.6512,1.657,1.6578,1.6597,1.6671,1.6675,1.6627,1.663,1.6632,1.6634,0,0,0,0,0,0,0,1.6329,1.634,1.645,1.6431,1.6434,1.6439,1.6448,1.6498,1.6534,1.6488,1.649,1.6499,1.6572,1.6592,1.6599,1.6676,1.6627,1.6631,1.6634,1.6636,1.6802,1.6804,0,0,0,0,0,0,1.632,1.6336,1.6447,1.6452,1.638,1.6442,1.6453,1.6478,1.6533,1.6541,1.65,1.65,1.6584,1.6593,1.6602,1.6672,1.6632,1.6637,1.6639,1.6801,1.6803,1.6804,0,0,0,0,0,0,1.6316,1.633,1.6443,1.6394,1.6409,1.6446,1.6475,1.6481,1.6501,1.6542,1.6549,1.6514,1.6584,1.6595,1.6651,1.6675,1.6639,1.6643,1.6799,1.6802,1.6804,1.6809,0,0,0,0,0,0,1.6312,1.6328,1.6348,1.6395,1.6412,1.6489,1.6476,1.6483,1.6509,1.6509,1.6557,1.6564,1.6584,1.6644,1.6656,1.6681,1.6647,1.6797,1.68,1.6803,1.6807,1.6812,1.6815,0,0,0,0,0,1.6307,1.6346,1.6349,1.6362,1.6437,1.6491,1.6501,1.6521,1.6511,1.6532,1.6559,1.6563,1.667,1.6649,1.6663,1.669,1.6796,1.6799,1.6803,1.6805,1.6811,1.6815,0,0,0,0,0,0,1.6302,1.6353,1.6356,1.6412,1.6447,1.6492,1.652,1.6526,1.6565,1.6563,1.6588,1.6599,1.6654,1.6678,1.6653,1.6747,1.6732,1.6739,1.673,1.6735,1.6739,1.6733,1.6651,0,0,0,0,0,1.6307,1.6345,1.6388,1.6433,1.645,1.6482,1.6506,1.6519,1.6557,1.6572,1.6603,1.664,1.6683,1.671,1.6751,1.6811,1.6823,1.6836,1.684,1.6843,1.6849,1.6885,1.6892,1.6816,1.6816,1.6816,0,0,1.6319,1.6351,1.6374,1.6433,1.6462,1.6502,1.6494,1.6537,1.6568,1.6579,1.6633,1.6658,1.6701,1.6759,1.6787,1.6781,1.6873,1.6848,1.685,1.6854,1.6889,1.6896,1.6903,1.6818,1.6818,1.6817,0,0,1.6361,1.6388,1.643,1.6459,1.6503,1.6524,1.6534,1.6579,1.6596,1.6651,1.6661,1.6698,1.677,1.6802,1.6827,1.6884,1.6889,1.6896,1.6918,1.6953,1.6959,1.6964,1.6987,1.6994,1.6902,1.6902,1.6902,0,1.637,1.643,1.6451,1.6494,1.6521,1.6532,1.6576,1.6603,1.6658,1.6678,1.667,1.6762,1.6792,1.6859,1.6873,1.6892,1.6907,1.6891,1.6956,1.6962,1.6967,1.6989,1.6997,1.6902,1.6902,1.6902,1.6902,0,1.6441,1.6483,1.6511,1.6564,1.6594,1.6637,1.6666,1.6694,1.6705,1.6728,1.6786,1.6822,1.6872,1.6889,1.69,1.6959,1.6954,1.6951,1.6937,1.6975,1.6996,1.7004,1.6903,1.6903,1.6903,1.6903,0,0,1.6482,1.6546,1.6557,1.6582,1.6632,1.6666,1.671,1.6759,1.6784,1.6822,1.6861,1.6923,1.6921,1.695,1.6965,1.6995,1.7041,1.6989,1.699,1.6999,1.7111,1.7114,1.7123,1.7045,1.7046,1.7048,1.7108,0,1.6531,1.661,1.6631,1.6699,1.6739,1.6752,1.6791,1.6827,1.685,1.6889,1.6914,1.6959,1.6951,1.6969,1.7,1.7029,1.7064,1.7025,1.7084,1.7086,1.7074,1.7134,1.7137,1.7192,1.7116,1.7118,1.7119,0,1.6599,1.6639,1.671,1.6757,1.6775,1.681,1.6858,1.6894,1.6936,1.6951,1.6984,1.6997,1.7046,1.7029,1.7099,1.7071,1.7097,1.7115,1.7118,1.7125,1.7105,1.7145,1.721,1.7219,1.7131,1.713,1.7129,0,1.6624,1.6696,1.6749,1.677,1.6825,1.685,1.6874,1.6915,1.6943,1.6985,1.7005,1.7052,1.7078,1.7115,1.7141,1.7126,1.721,1.7194,1.7226,1.7225,1.7243,1.7242,1.7315,1.7257,1.7257,1.7257,1.7257,0,1.6678,1.6722,1.6761,1.6794,1.6844,1.6869,1.6919,1.6944,1.698,1.702,1.7033,1.707,1.7101,1.7143,1.7164,1.722,1.7231,1.7246,1.7251,1.7246,1.7244,1.7264,1.7262,1.7259,1.7259,1.7258,1.7258,0,1.6715,1.6742,1.6802,1.685,1.6863,1.6898,1.694,1.6974,1.6997,1.7047,1.706,1.7098,1.7148,1.7178,1.7241,1.7255,1.7318,1.732,1.7304,1.7306,1.7337,1.7334,1.7427,1.7441,1.7371,1.7372,1.7372,0,1.6748,1.6783,1.6835,1.6862,1.6887,1.693,1.6959,1.6985,1.7016,1.7068,1.7095,1.7146,1.7188,1.7268,1.7302,1.7352,1.7357,1.7386,1.7364,1.7359,1.736,1.7358,1.7363,1.739,1.7391,1.7391,1.7391,0,1.6805,1.6818,1.6859,1.6906,1.6941,1.698,1.7018,1.704,1.7073,1.7107,1.7158,1.7191,1.7256,1.7307,1.7359,1.7387,1.7396,1.7398,1.7408,1.7404,1.7393,1.7402,1.7316,1.7396,1.7395,1.7395,1.7395,1.7395,1.6843,1.6875,1.6917,1.6964,1.6996,1.7032,1.7066,1.7094,1.7137,1.7192,1.7205,1.726,1.7304,1.7375,1.7403,1.7448,1.7443,1.7457,1.7461,1.7465,1.7467,1.7385,1.7457,1.7457,1.7457,1.7457,1.7457,0,1.6903,1.6931,1.6973,1.7027,1.7064,1.7068,1.7111,1.7143,1.7191,1.723,1.7272,1.7332,1.7382,1.7421,1.7473,1.7501,1.7507,1.7515,1.7514,1.752,1.7467,1.7454,1.7509,1.7509,1.7509,1.7509,1.7509,1.7509,1.6938,1.6993,1.7011,1.7083,1.7111,1.7164,1.7189,1.7224,1.7256,1.7322,1.7364,1.7388,1.7429,1.7484,1.7531,1.7542,1.7561,1.7568,1.758,1.7529,1.7524,1.7518,1.7506,1.7572,1.7572,1.763,1.763,1.763]},{"header":{"parameterUnit":"m.s-1","parameterCategory":1,"la1":30.2991,"la2":30.254,"lo1":-89.0895,"lo2":-89.0444,"dy":0.0017,"dx":0.0017,"nx":28,"ny":28,"refTime":"2025-03-16T21:00:00:Z","depth":0,"parameterNumber":3,"parameterNumberName":"V-component_of_WINDS"},"data":[0,0,0,0,0,0,0,0,0,0,0,0,0,0,0,0,0,0,0,0,0,0,0,0,0,0,0,0,0,0,0,0,0,0,0,0,0,0,0,0,0,0,0,0,0,0,0,0,0,0,0,0,0,0,0,0,0,0,-2.571,-2.5711,0,-2.5786,-2.5786,-2.5787,-2.5863,-2.5864,-2.5865,-2.5866,-2.5941,-2.5942,-2.5943,0,0,0,0,0,0,0,0,0,0,0,0,0,-2.5632,-2.5633,-2.571,-2.5711,-2.5712,-2.5785,-2.5787,-2.5788,-2.5863,-2.5864,-2.5866,-2.5867,-2.5941,-2.5942,-2.5943,0,0,0,0,0,0,0,0,0,0,0,0,0,-2.5683,-2.5634,-2.571,-2.5759,-2.5764,-2.5785,-2.5787,-2.5788,-2.5863,-2.5864,-2.5866,-2.5867,-2.594,-2.5942,-2.5943,-2.5922,0,0,-2.5948,-2.5949,0,0,0,0,0,0,0,0,-2.568,-2.5685,-2.5751,-2.5755,-2.5761,-2.5817,-2.5787,-2.5833,-2.5862,-2.5825,-2.5866,-2.5868,-2.5898,-2.5903,-2.5914,-2.5926,-2.5929,-2.5948,-2.5949,-2.595,-2.595,0,0,0,0,0,0,0,-2.5676,-2.5683,-2.574,-2.5752,-2.5758,-2.5777,-2.5786,-2.5796,-2.5852,-2.5828,-2.5834,-2.5842,-2.5901,-2.5912,-2.5916,-2.593,-2.5948,-2.595,-2.5951,-2.5951,-2.5931,-2.593,0,0,0,0,0,0,-2.5665,-2.5679,-2.5738,-2.5742,-2.5724,-2.5777,-2.5787,-2.5797,-2.5852,-2.5862,-2.5841,-2.5845,-2.5909,-2.5914,-2.5919,-2.59,-2.595,-2.5951,-2.5952,-2.5933,-2.5931,-2.5929,0,0,0,0,0,0,-2.5663,-2.567,-2.5735,-2.5712,-2.5722,-2.5777,-2.5788,-2.5798,-2.5809,-2.5862,-2.5872,-2.5841,-2.591,-2.5917,-2.5922,-2.5903,-2.5952,-2.5953,-2.5934,-2.5932,-2.593,-2.5859,0,0,0,0,0,0,-2.5661,-2.5669,-2.5661,-2.5712,-2.5723,-2.5735,-2.5787,-2.5798,-2.5812,-2.5818,-2.5865,-2.5874,-2.5912,-2.5919,-2.5923,-2.5906,-2.5955,-2.5936,-2.5933,-2.5931,-2.5863,-2.5855,-2.5847,0,0,0,0,0,-2.5658,-2.5637,-2.566,-2.5667,-2.5714,-2.5734,-2.5741,-2.5785,-2.581,-2.5803,-2.5837,-2.5873,-2.5905,-2.5919,-2.5924,-2.5907,-2.5938,-2.5934,-2.5931,-2.5867,-2.5856,-2.5847,0,0,0,0,0,0,-2.558,-2.5644,-2.5671,-2.5665,-2.5694,-2.5747,-2.5739,-2.5772,-2.5794,-2.5799,-2.5853,-2.5863,-2.5862,-2.5886,-2.59,-2.5891,-2.5926,-2.5924,-2.5876,-2.5866,-2.5858,-2.5852,-2.5956,0,0,0,0,0,-2.5563,-2.5574,-2.5629,-2.5619,-2.5632,-2.5683,-2.5693,-2.5726,-2.5757,-2.5769,-2.5804,-2.5833,-2.585,-2.5859,-2.5878,-2.5868,-2.588,-2.5859,-2.5851,-2.5844,-2.5841,-2.584,-2.5832,-2.5918,-2.5919,-2.5919,0,0,-2.5526,-2.5563,-2.5566,-2.5605,-2.563,-2.5641,-2.5692,-2.5701,-2.5709,-2.577,-2.5777,-2.5804,-2.584,-2.5838,-2.5838,-2.5857,-2.5821,-2.584,-2.5834,-2.5835,-2.5835,-2.5827,-2.582,-2.5916,-2.5917,-2.5917,0,0,-2.5465,-2.5494,-2.5489,-2.5515,-2.5555,-2.5589,-2.5588,-2.5637,-2.5658,-2.5666,-2.5713,-2.5724,-2.5751,-2.5776,-2.5792,-2.5744,-2.5778,-2.5749,-2.5706,-2.5704,-2.5697,-2.5692,-2.5675,-2.5669,-2.5746,-2.5746,-2.5745,0,-2.5414,-2.5432,-2.5483,-2.5489,-2.5505,-2.5563,-2.556,-2.5583,-2.5625,-2.5635,-2.5656,-2.5694,-2.5723,-2.5728,-2.5716,-2.5727,-2.5728,-2.5743,-2.5695,-2.5689,-2.5685,-2.567,-2.5663,-2.5742,-2.5742,-2.5743,-2.5743,0,-2.5369,-2.5381,-2.5373,-2.5414,-2.543,-2.5431,-2.5482,-2.5492,-2.5524,-2.5557,-2.5566,-2.5602,-2.563,-2.5634,-2.5664,-2.5644,-2.5655,-2.5684,-2.5721,-2.5672,-2.5659,-2.5653,-2.5736,-2.5738,-2.5739,-2.574,0,0,-2.5257,-2.533,-2.5326,-2.5347,-2.5397,-2.5407,-2.5412,-2.5441,-2.5448,-2.5477,-2.5483,-2.5507,-2.5536,-2.5554,-2.5588,-2.5586,-2.5548,-2.5617,-2.5618,-2.5603,-2.5529,-2.5506,-2.5499,-2.5572,-2.5571,-2.557,-2.5526,0,-2.5205,-2.5217,-2.5265,-2.5263,-2.5276,-2.5333,-2.5338,-2.5369,-2.54,-2.5416,-2.5451,-2.5467,-2.5503,-2.5515,-2.5516,-2.5552,-2.5534,-2.5556,-2.5578,-2.5578,-2.5566,-2.5492,-2.5467,-2.5424,-2.5522,-2.5521,-2.552,0,-2.5144,-2.5171,-2.5171,-2.5223,-2.523,-2.5233,-2.5265,-2.5279,-2.5316,-2.534,-2.5362,-2.5401,-2.541,-2.5445,-2.546,-2.5474,-2.5486,-2.5505,-2.5505,-2.5508,-2.5545,-2.5493,-2.5411,-2.5404,-2.5512,-2.5513,-2.5514,0,-2.5063,-2.51,-2.5105,-2.5121,-2.5182,-2.5183,-2.5208,-2.5247,-2.5263,-2.529,-2.5301,-2.5329,-2.5344,-2.5365,-2.5412,-2.5433,-2.5421,-2.546,-2.5441,-2.544,-2.5435,-2.5434,-2.5354,-2.5443,-2.5443,-2.5443,-2.5444,0,-2.4999,-2.4997,-2.507,-2.5073,-2.5073,-2.5129,-2.5127,-2.5158,-2.5193,-2.5204,-2.5255,-2.5264,-2.5325,-2.5342,-2.5378,-2.5385,-2.5392,-2.5411,-2.542,-2.5406,-2.5403,-2.5414,-2.5418,-2.5442,-2.5442,-2.5442,-2.5443,0,-2.4908,-2.4957,-2.4967,-2.5025,-2.5039,-2.5037,-2.5087,-2.5092,-2.5129,-2.5142,-2.5148,-2.5204,-2.5226,-2.5276,-2.531,-2.5335,-2.5333,-2.5351,-2.532,-2.5326,-2.5305,-2.5306,-2.5228,-2.5221,-2.5315,-2.5314,-2.5313,0,-2.4863,-2.4863,-2.4922,-2.4933,-2.4957,-2.4974,-2.4991,-2.5047,-2.5062,-2.5107,-2.5107,-2.5134,-2.5158,-2.5191,-2.5235,-2.5263,-2.5281,-2.5252,-2.5285,-2.5272,-2.5281,-2.528,-2.5281,-2.5244,-2.5243,-2.5242,-2.5241,0,-2.4778,-2.4803,-2.4825,-2.4857,-2.4876,-2.4903,-2.4933,-2.4939,-2.5002,-2.5017,-2.5041,-2.506,-2.5098,-2.5124,-2.5159,-2.5185,-2.5223,-2.523,-2.5228,-2.5212,-2.5195,-2.5204,-2.53,-2.5231,-2.5232,-2.5233,-2.5233,-2.5234,-2.4709,-2.4712,-2.4755,-2.4779,-2.4808,-2.4836,-2.4845,-2.4883,-2.4905,-2.494,-2.4972,-2.4994,-2.5034,-2.5086,-2.511,-2.5128,-2.5147,-2.5143,-2.5142,-2.5139,-2.5134,-2.5193,-2.5135,-2.5135,-2.5135,-2.5136,-2.5136,0,-2.4627,-2.4658,-2.468,-2.4721,-2.474,-2.4777,-2.4813,-2.4827,-2.4845,-2.488,-2.4904,-2.4933,-2.496,-2.5007,-2.5038,-2.5044,-2.5062,-2.505,-2.5049,-2.5055,-2.5115,-2.5114,-2.5034,-2.5034,-2.5034,-2.5034,-2.5034,-2.5034,-2.4586,-2.4595,-2.4626,-2.465,-2.4682,-2.4704,-2.4722,-2.4748,-2.4777,-2.4807,-2.483,-2.4862,-2.4903,-2.4937,-2.4964,-2.4978,-2.4986,-2.4968,-2.4987,-2.5041,-2.5051,-2.506,-2.506,-2.497,-2.497,-2.4927,-2.4926,-2.4926]}]]